Powrót do katalogu

FENGYUN 1C DEB

AktywnySSO
NORAD 32210·DEBRIS·🇨🇳 China

Wystrzelony May 10, 1999 z Taiyuan Satellite Launch Center

Loading…

Następne Przeloty (najbliższe 24 godziny)

TLE

Starzejące sięSource: Space-Track

Epoka: Sep 8, 2026, 22:38 UTC

1 32210U 99025CVG 26251.94314257  .00001211  00000-0  66544-3 0  9997
2 32210  98.8485 302.2426 0071895 126.1174 234.6681 14.12265717651999

Śledź FENGYUN 1C DEB w czasie rzeczywistym z AllMySat

Download on the App Store